COSMOS 1275 DEB, 12962

Orbit data source: Space-Track

COSMOS 1275 DEB, 12962 is space debris in LEO originally from a launch on Thu, 04 Jun 1981 UTC launched from the Plesetsk Missile And Space Complex (PKMTR). Debris objects in space refer to the collection of defunct objects orbiting the Earth. Examples of debris include non-operational satellites, rocket bodies, and fragments generated from explosions, collisions, or faulty payload assembly.

Loading next visibility...
Identifier
12962, 1981-053EH
Orbit
LEO
Country
Flag of CISCIS
Related business
Manufacturer
Unknown
Mission
Spacecraft
Bus & Motor
Unknown
Mass
Unknown
Launch date (UTC)
1981-06-04 (45 years ago)
Launch vehicle
Unknown
Launch site
Plesetsk Missile And Space Complex (PKMTR)
Object type
Payload
Rocket body
Debris
Shape & HBR
Unknown shape, 0.1 m
Radar Cross Section
Small (<0.1 m²)

Expand to show TLE details & history
Last TLE update: 21 hours ago

TLE from 21 hours ago
0 COSMOS 1275 DEB
1 12962U 81053EH  26118.78948338  .00001267  00000-0  80359-3 0  9999
2 12962  82.9629  50.0483 0024799 265.1129  94.7211 14.03043705253589
Epoch: 2026-04-28T18:56Z
TLE epoch observation values (Epoch: 2026-04-28T18:56:51.364Z)
Latitude
-0.00003°
Longitude
-90.92547°
Altitude
887.74 km
Speed
7.408 km/s
True Right ascension
03h 20m 11s
True Declination
0° 00' 00"
Sunlit
Object was in daylight at epoch
Visualization orbit readout
Latitude
Unknown
Longitude
Unknown
Altitude
Unknown
Speed
Unknown
Apparent Right ascension
Unknown
Apparent Declination
Unknown
Sunlit
N/A
Visualization observer readout
Local Sidereal Time
23:08:48
Azimuth
Unknown
Elevation
Unknown
Doppler factor
Unknown
Orbital elements
Apogee altitude
898.384 km
Perigee altitude
862.383 km
Semi-major axis
7,258.521 km
Eccentricity
0.00248
Inclination
82.9629°
RAAN
50.0483°
Arg. of periapsis
265.1129°
True anomaly
95.00424°
Mean anomaly
94.7211°
Eccentric anomaly
94.86268°
Mean motion
3.50971 °/min
Orbital period
102.57 mins
BSTAR
0.00080359
Loading maneuver chart data...
Computing Atmospheric mass density...
Loading historical data...
Loading historical data...
Loading historical data...
Loading historical data...
Loading historical data...
Loading historical data...
Loading historical data...

Documentation

Showing up to 5 results
|